Time,TemperatureF,DewpointF,PressureIn,WindDirection,WindDirectionDegrees,WindSpeedMPH,WindSpeedGustMPH,Humidity,HourlyPrecipIn,Conditions,Clouds,dailyrainin,SoftwareType,DateUTC
2013-02-22 00:00:00,23.5,16.1,30.20,WNW,292,2.2,2.7,73,0.00,CLR,,0.00,WeatherDisplay:10.37,2013-02-22 05:00:00,
2013-02-22 00:05:00,23.5,16.1,30.20,SW,225,3.1,4.6,73,0.00,CLR,,0.00,WeatherDisplay:10.37,2013-02-22 05:05:00,
2013-02-22 00:10:00,23.6,16.2,30.20,NNE,22,0.8,2.3,73,0.00,CLR,,0.00,WeatherDisplay:10.37,2013-02-22 05:10:00,
2013-02-22 00:15:00,23.6,16.5,30.20,NNW,337,2.2,2.3,74,0.00,CLR,,0.00,WeatherDisplay:10.37,2013-02-22 05:15:00,
2013-02-22 00:20:00,23.6,16.2,30.20,NNE,22,1.2,2.3,73,0.00,CLR,,0.00,WeatherDisplay:10.37,2013-02-22 05:20:00,
2013-02-22 00:25:00,23.5,16.1,30.22,WNW,292,2.6,2.7,73,0.00,CLR,,0.00,WeatherDisplay:10.37,2013-02-22 05:25:00,
2013-02-22 00:30:00,23.8,16.4,30.21,North,360,2.9,2.9,73,0.00,CLR,,0.00,WeatherDisplay:10.37,2013-02-22 05:30:00,
2013-02-22 00:35:00,23.8,16.4,30.22,West,270,2.1,2.3,73,0.00,CLR,,0.00,WeatherDisplay:10.37,2013-02-22 05:35:00,
2013-02-22 00:40:00,24.1,16.4,30.22,NW,315,3.3,4.6,72,0.00,CLR,,0.00,WeatherDisplay:10.37,2013-02-22 05:40:00,
2013-02-22 00:45:00,24.1,16.7,30.23,West,270,2.9,5.8,73,0.00,CLR,,0.00,WeatherDisplay:10.37,2013-02-22 05:45:00,
2013-02-22 00:50:00,24.1,16.7,30.23,NNW,337,2.9,2.9,73,0.00,CLR,,0.00,WeatherDisplay:10.37,2013-02-22 05:50:00,
2013-02-22 00:55:00,24.1,16.7,30.22,SW,225,2.1,2.3,73,0.00,CLR,,0.00,WeatherDisplay:10.37,2013-02-22 05:55:00,
2013-02-22 01:00:00,24.0,16.6,30.22,SE,135,2.3,2.3,73,0.00,CLR,,0.00,WeatherDisplay:10.37,2013-02-22 06:00:00,
2013-02-22 01:05:00,24.1,16.4,30.23,NW,315,2.0,2.3,72,0.00,CLR,,0.00,WeatherDisplay:10.37,2013-02-22 06:05:00,
2013-02-22 01:10:00,24.1,16.7,30.23,NW,315,3.0,6.9,73,0.00,CLR,,0.00,WeatherDisplay:10.37,2013-02-22 06:10:00,
2013-02-22 01:15:00,23.9,16.5,30.23,NW,315,0.2,1.2,73,0.00,CLR,,0.00,WeatherDisplay:10.37,2013-02-22 06:15:00,
2013-02-22 01:20:00,23.7,16.6,30.22,NNW,337,0.2,2.3,74,0.00,CLR,,0.00,WeatherDisplay:10.37,2013-02-22 06:20:00,
2013-02-22 01:25:00,23.4,16.3,30.23,NW,315,1.2,2.3,74,0.00,CLR,,0.00,WeatherDisplay:10.37,2013-02-22 06:25:00,
2013-02-22 01:31:00,23.4,16.6,30.23,SW,225,2.1,2.3,75,0.00,CLR,,0.00,WeatherDisplay:10.37,2013-02-22 06:31:00,
2013-02-22 01:36:00,23.5,16.7,30.23,NE,45,1.7,4.6,75,0.00,CLR,,0.00,WeatherDisplay:10.37,2013-02-22 06:36:00,
2013-02-22 01:41:00,23.5,16.7,30.23,NW,315,1.2,4.6,75,0.00,CLR,,0.00,WeatherDisplay:10.37,2013-02-22 06:41:00,
2013-02-22 01:46:00,23.6,16.5,30.23,NE,45,3.2,3.2,74,0.00,CLR,,0.00,WeatherDisplay:10.37,2013-02-22 06:46:00,
2013-02-22 01:51:00,23.8,16.7,30.23,West,270,3.2,4.6,74,0.00,CLR,,0.00,WeatherDisplay:10.37,2013-02-22 06:51:00,
2013-02-22 01:56:00,23.8,16.7,30.23,North,360,3.3,5.8,74,0.00,CLR,,0.00,WeatherDisplay:10.37,2013-02-22 06:56:00,
2013-02-22 02:01:00,23.8,16.7,30.23,NNW,337,3.9,9.2,74,0.00,CLR,,0.00,WeatherDisplay:10.37,2013-02-22 07:01:00,
2013-02-22 02:06:00,23.8,17.0,30.24,NE,45,2.7,4.6,75,0.00,CLR,,0.00,WeatherDisplay:10.37,2013-02-22 07:06:00,
2013-02-22 02:11:00,23.7,16.9,30.24,NNE,22,2.9,5.8,75,0.00,CLR,,0.00,WeatherDisplay:10.37,2013-02-22 07:11:00,
2013-02-22 02:16:00,23.7,16.9,30.24,North,360,2.7,4.6,75,0.00,CLR,,0.00,WeatherDisplay:10.37,2013-02-22 07:16:00,
2013-02-22 02:21:00,23.7,16.9,30.24,North,360,3.3,5.4,75,0.00,CLR,,0.00,WeatherDisplay:10.37,2013-02-22 07:21:00,
2013-02-22 02:26:00,23.8,17.0,30.24,NNW,337,2.6,2.7,75,0.00,CLR,,0.00,WeatherDisplay:10.37,2013-02-22 07:26:00,
2013-02-22 02:31:00,23.9,17.1,30.25,West,270,3.1,3.1,75,0.00,CLR,,0.00,WeatherDisplay:10.37,2013-02-22 07:31:00,
2013-02-22 02:36:00,24.1,17.3,30.25,NNW,337,2.9,4.6,75,0.00,CLR,,0.00,WeatherDisplay:10.37,2013-02-22 07:36:00,
2013-02-22 02:41:00,24.4,17.3,30.25,South,180,3.5,5.8,74,0.00,CLR,,0.00,WeatherDisplay:10.37,2013-02-22 07:41:00,
2013-02-22 02:46:00,24.4,17.6,30.25,NW,315,2.9,6.9,75,0.00,CLR,,0.00,WeatherDisplay:10.37,2013-02-22 07:46:00,
2013-02-22 02:51:00,24.4,17.3,30.25,SSW,202,2.1,2.3,74,0.00,CLR,,0.00,WeatherDisplay:10.37,2013-02-22 07:51:00,
2013-02-22 02:56:00,24.3,17.5,30.25,North,360,0.6,5.8,75,0.00,CLR,,0.00,WeatherDisplay:10.37,2013-02-22 07:56:00,
2013-02-22 03:01:00,24.3,17.5,30.25,NNE,22,1.8,4.6,75,0.00,CLR,,0.00,WeatherDisplay:10.37,2013-02-22 08:01:00,
2013-02-22 03:06:00,24.1,17.3,30.25,WSW,247,1.7,5.8,75,0.00,OVC,,0.00,WeatherDisplay:10.37,2013-02-22 08:06:00,
2013-02-22 03:11:00,24.0,17.2,30.25,NE,45,2.1,4.6,75,0.00,OVC,,0.00,WeatherDisplay:10.37,2013-02-22 08:11:00,
2013-02-22 03:16:00,24.0,17.5,30.26,WNW,292,2.8,2.8,76,0.00,OVC,,0.00,WeatherDisplay:10.37,2013-02-22 08:16:00,
2013-02-22 03:21:00,23.9,17.4,30.25,North,360,0.0,0.0,76,0.00,OVC,,0.00,WeatherDisplay:10.37,2013-02-22 08:21:00,
2013-02-22 03:26:00,23.9,17.4,30.26,NE,45,3.0,6.9,76,0.00,OVC,,0.00,WeatherDisplay:10.37,2013-02-22 08:26:00,
2013-02-22 03:31:00,23.9,17.4,30.26,NW,315,1.0,2.7,76,0.00,OVC,,0.00,WeatherDisplay:10.37,2013-02-22 08:31:00,
2013-02-22 03:36:00,24.0,17.8,30.26,SSE,157,2.2,2.7,77,0.00,OVC,,0.00,WeatherDisplay:10.37,2013-02-22 08:36:00,
2013-02-22 03:41:00,24.1,17.6,30.26,NE,45,2.4,2.7,76,0.00,OVC,,0.00,WeatherDisplay:10.37,2013-02-22 08:41:00,
2013-02-22 03:46:00,23.9,17.7,30.26,NE,45,2.7,6.9,77,0.00,OVC,,0.00,WeatherDisplay:10.37,2013-02-22 08:46:00,
2013-02-22 03:51:00,23.9,17.7,30.27,NW,315,0.2,2.3,77,0.00,OVC,,0.00,WeatherDisplay:10.37,2013-02-22 08:51:00,
2013-02-22 03:56:00,23.9,17.7,30.27,WSW,247,0.6,5.8,77,0.00,OVC,,0.00,WeatherDisplay:10.37,2013-02-22 08:56:00,
2013-02-22 04:01:00,23.9,18.0,30.27,South,180,0.4,2.7,78,0.00,OVC,,0.00,WeatherDisplay:10.37,2013-02-22 09:01:00,
2013-02-22 04:06:00,23.9,17.7,30.27,NE,45,1.9,2.3,77,0.00,OVC,,0.00,WeatherDisplay:10.37,2013-02-22 09:06:00,
2013-02-22 04:11:00,23.9,17.7,30.27,North,360,1.9,4.6,77,0.00,OVC,,0.00,WeatherDisplay:10.37,2013-02-22 09:11:00,
2013-02-22 04:16:00,23.9,17.7,30.27,WSW,247,0.0,2.3,77,0.00,OVC,,0.00,WeatherDisplay:10.37,2013-02-22 09:16:00,
2013-02-22 04:21:00,23.8,17.9,30.26,NE,45,1.7,2.7,78,0.00,OVC,,0.00,WeatherDisplay:10.37,2013-02-22 09:21:00,
2013-02-22 04:26:00,23.7,17.8,30.26,SE,135,0.1,1.2,78,0.00,OVC,,0.00,WeatherDisplay:10.37,2013-02-22 09:26:00,
2013-02-22 04:31:00,23.5,17.6,30.27,North,360,2.4,4.6,78,0.00,OVC,,0.00,WeatherDisplay:10.37,2013-02-22 09:31:00,
2013-02-22 04:36:00,23.7,17.8,30.27,SE,135,3.3,8.1,78,0.00,OVC,,0.00,WeatherDisplay:10.37,2013-02-22 09:36:00,
2013-02-22 04:41:00,23.8,17.9,30.27,WNW,292,1.7,2.3,78,0.00,OVC,,0.00,WeatherDisplay:10.37,2013-02-22 09:41:00,
2013-02-22 04:46:00,23.8,17.9,30.27,NW,315,3.0,3.0,78,0.00,OVC,,0.00,WeatherDisplay:10.37,2013-02-22 09:46:00,
2013-02-22 04:51:00,23.8,17.9,30.28,West,270,1.8,2.7,78,0.00,OVC,,0.00,WeatherDisplay:10.37,2013-02-22 09:51:00,
2013-02-22 04:56:00,23.7,17.8,30.28,NW,315,1.4,1.4,78,0.00,OVC,,0.00,WeatherDisplay:10.37,2013-02-22 09:56:00,
2013-02-22 05:01:00,23.4,17.8,30.29,NW,315,1.1,2.3,79,0.00,OVC,,0.00,WeatherDisplay:10.37,2013-02-22 10:01:00,
2013-02-22 05:06:00,23.2,17.7,30.29,WNW,292,1.5,2.3,79,0.00,BKN,,0.00,WeatherDisplay:10.37,2013-02-22 10:06:00,
2013-02-22 05:11:00,23.0,17.7,30.30,WNW,292,0.4,2.3,80,0.00,BKN,,0.00,WeatherDisplay:10.37,2013-02-22 10:11:00,
2013-02-22 05:16:00,22.7,17.5,30.30,WNW,292,0.0,0.0,80,0.00,BKN,,0.00,WeatherDisplay:10.37,2013-02-22 10:16:00,
2013-02-22 05:21:00,22.3,17.6,30.30,WNW,292,0.0,0.0,82,0.00,BKN,,0.00,WeatherDisplay:10.37,2013-02-22 10:21:00,
2013-02-22 05:26:00,21.9,17.5,30.31,WNW,292,0.1,1.2,83,0.00,BKN,,0.00,WeatherDisplay:10.37,2013-02-22 10:26:00,
2013-02-22 05:31:00,21.5,17.4,30.30,WNW,292,0.3,2.3,84,0.00,BKN,,0.00,WeatherDisplay:10.37,2013-02-22 10:31:00,
2013-02-22 05:36:00,20.9,17.4,30.32,WNW,292,0.0,0.0,86,0.00,BKN,,0.00,WeatherDisplay:10.37,2013-02-22 10:36:00,
2013-02-22 05:41:00,20.9,17.4,30.32,West,270,0.0,0.0,86,0.00,BKN,,0.00,WeatherDisplay:10.37,2013-02-22 10:41:00,
2013-02-22 05:46:00,20.9,17.4,30.32,West,270,0.0,0.0,86,0.00,BKN,,0.00,WeatherDisplay:10.37,2013-02-22 10:46:00,
2013-02-22 05:51:00,21.1,17.6,30.33,West,270,0.5,1.2,86,0.00,BKN,,0.00,WeatherDisplay:10.37,2013-02-22 10:51:00,
2013-02-22 05:56:00,21.1,17.6,30.33,West,270,0.3,2.3,86,0.00,BKN,,0.00,WeatherDisplay:10.37,2013-02-22 10:56:00,
2013-02-22 06:01:00,20.7,17.4,30.33,West,270,0.1,1.2,87,0.00,BKN,,0.00,WeatherDisplay:10.37,2013-02-22 11:01:00,
2013-02-22 06:06:00,20.3,17.6,30.33,West,270,1.9,2.3,89,0.00,BKN,,0.00,WeatherDisplay:10.37,2013-02-22 11:06:00,
2013-02-22 06:11:00,20.1,17.4,30.33,West,270,0.6,1.3,89,0.00,CLR,,0.00,WeatherDisplay:10.37,2013-02-22 11:11:00,
2013-02-22 06:16:00,19.9,17.2,30.33,West,270,1.4,1.4,89,0.00,CLR,,0.00,WeatherDisplay:10.37,2013-02-22 11:16:00,
2013-02-22 06:21:00,19.8,17.3,30.34,West,270,0.0,0.0,90,0.00,CLR,,0.00,WeatherDisplay:10.37,2013-02-22 11:21:00,
2013-02-22 06:26:00,19.9,17.4,30.34,West,270,1.2,2.3,90,0.00,CLR,,0.00,WeatherDisplay:10.37,2013-02-22 11:26:00,
2013-02-22 06:31:00,19.8,17.3,30.35,West,270,0.0,0.0,90,0.00,CLR,,0.00,WeatherDisplay:10.37,2013-02-22 11:31:00,
2013-02-22 06:36:00,19.5,17.3,30.35,West,270,0.0,0.0,91,0.00,CLR,,0.00,WeatherDisplay:10.37,2013-02-22 11:36:00,
2013-02-22 06:41:00,19.3,17.1,30.35,West,270,0.0,0.0,91,0.00,CLR,,0.00,WeatherDisplay:10.37,2013-02-22 11:41:00,
2013-02-22 06:46:00,18.9,17.2,30.35,West,270,0.0,0.0,93,0.00,CLR,,0.00,WeatherDisplay:10.37,2013-02-22 11:46:00,
2013-02-22 06:51:00,19.3,17.6,30.35,West,270,0.2,1.2,93,0.00,CLR,,0.00,WeatherDisplay:10.37,2013-02-22 11:51:00,
2013-02-22 06:56:00,19.8,17.6,30.36,NW,315,1.3,2.7,91,0.00,CLR,,0.00,WeatherDisplay:10.37,2013-02-22 11:56:00,
2013-02-22 07:01:00,19.9,17.4,30.36,NW,315,0.0,0.0,90,0.00,OVC,,0.00,WeatherDisplay:10.37,2013-02-22 12:01:00,
2013-02-22 07:06:00,19.9,17.7,30.37,NW,315,1.2,2.3,91,0.00,OVC,,0.00,WeatherDisplay:10.37,2013-02-22 12:06:00,
2013-02-22 07:11:00,19.9,17.7,30.37,NW,315,0.0,0.0,91,0.00,OVC,,0.00,WeatherDisplay:10.37,2013-02-22 12:11:00,
2013-02-22 07:16:00,19.9,17.7,30.37,NW,315,0.5,1.2,91,0.00,OVC,,0.00,WeatherDisplay:10.37,2013-02-22 12:16:00,
2013-02-22 07:21:00,20.4,17.9,30.37,WNW,292,0.0,0.0,90,0.00,OVC,,0.00,WeatherDisplay:10.37,2013-02-22 12:21:00,
2013-02-22 07:26:00,20.9,18.2,30.37,WNW,292,0.0,0.0,89,0.00,OVC,,0.00,WeatherDisplay:10.37,2013-02-22 12:26:00,
2013-02-22 07:31:00,21.6,18.6,30.37,WNW,292,0.2,1.2,88,0.00,OVC,,0.00,WeatherDisplay:10.37,2013-02-22 12:31:00,
2013-02-22 07:36:00,22.4,18.8,30.36,NNW,337,0.7,2.3,86,0.00,OVC,,0.00,WeatherDisplay:10.37,2013-02-22 12:36:00,
2013-02-22 07:41:00,23.3,18.9,30.36,NNE,22,2.0,2.3,83,0.00,OVC,,0.00,WeatherDisplay:10.37,2013-02-22 12:41:00,
2013-02-22 07:46:00,24.0,18.7,30.36,North,360,0.5,2.3,80,0.00,OVC,,0.00,WeatherDisplay:10.37,2013-02-22 12:46:00,
2013-02-22 07:51:00,25.0,19.4,30.36,WSW,247,1.0,5.8,79,0.00,OVC,,0.00,WeatherDisplay:10.37,2013-02-22 12:51:00,
2013-02-22 07:56:00,26.1,19.6,30.36,WSW,247,0.8,2.7,76,0.00,OVC,,0.00,WeatherDisplay:10.37,2013-02-22 12:56:00,
2013-02-22 08:01:00,26.8,19.9,30.36,NNW,337,1.2,2.7,75,0.00,BKN,,0.00,WeatherDisplay:10.37,2013-02-22 13:01:00,
2013-02-22 08:06:00,27.6,20.1,30.37,WNW,292,3.4,5.8,73,0.00,BKN,,0.00,WeatherDisplay:10.37,2013-02-22 13:06:00,
2013-02-22 08:11:00,28.0,20.1,30.37,NW,315,0.8,4.6,72,0.00,BKN,,0.00,WeatherDisplay:10.37,2013-02-22 13:11:00,
2013-02-22 08:16:00,28.6,20.4,30.37,NE,45,3.2,5.8,71,0.00,BKN,,0.00,WeatherDisplay:10.37,2013-02-22 13:16:00,
2013-02-22 08:21:00,28.9,20.3,30.37,NE,45,2.0,2.7,70,0.00,BKN,,0.00,WeatherDisplay:10.37,2013-02-22 13:21:00,
2013-02-22 08:26:00,29.4,20.5,30.37,SSW,202,2.2,2.7,69,0.00,BKN,,0.00,WeatherDisplay:10.37,2013-02-22 13:26:00,
2013-02-22 08:31:00,29.6,20.7,30.37,NE,45,3.6,6.9,69,0.00,BKN,,0.00,WeatherDisplay:10.37,2013-02-22 13:31:00,
2013-02-22 08:36:00,30.2,20.6,30.37,WNW,292,2.5,5.8,67,0.00,BKN,,0.00,WeatherDisplay:10.37,2013-02-22 13:36:00,
2013-02-22 08:41:00,30.5,20.8,30.37,North,360,4.4,8.1,67,0.00,BKN,,0.00,WeatherDisplay:10.37,2013-02-22 13:41:00,
2013-02-22 08:46:00,30.9,20.9,30.37,NE,45,2.8,2.8,66,0.00,BKN,,0.00,WeatherDisplay:10.37,2013-02-22 13:46:00,
2013-02-22 08:51:00,31.4,21.0,30.37,SE,135,3.3,9.2,65,0.00,BKN,,0.00,WeatherDisplay:10.37,2013-02-22 13:51:00,
2013-02-22 08:56:00,31.5,21.4,30.37,North,360,4.6,8.1,66,0.00,BKN,,0.00,WeatherDisplay:10.37,2013-02-22 13:56:00,
2013-02-22 09:01:00,31.8,21.4,30.37,WNW,292,4.1,6.9,65,0.00,SCT,,0.00,WeatherDisplay:10.37,2013-02-22 14:01:00,
2013-02-22 09:06:00,31.7,21.3,30.37,NE,45,3.8,5.8,65,0.00,SCT,,0.00,WeatherDisplay:10.37,2013-02-22 14:06:00,
2013-02-22 09:11:00,32.1,21.7,30.37,SSE,157,1.0,2.3,65,0.00,SCT,,0.00,WeatherDisplay:10.37,2013-02-22 14:11:00,
2013-02-22 09:16:00,32.6,21.4,30.37,SE,135,5.4,9.2,63,0.00,SCT,,0.00,WeatherDisplay:10.37,2013-02-22 14:16:00,
2013-02-22 09:21:00,32.7,21.9,30.37,SSW,202,4.8,8.1,64,0.00,SCT,,0.00,WeatherDisplay:10.37,2013-02-22 14:21:00,
2013-02-22 09:26:00,32.9,21.3,30.38,NNW,337,5.0,6.9,62,0.00,SCT,,0.00,WeatherDisplay:10.37,2013-02-22 14:26:00,
2013-02-22 09:31:00,33.1,21.9,30.38,NW,315,4.5,5.8,63,0.00,SCT,,0.00,WeatherDisplay:10.37,2013-02-22 14:31:00,
2013-02-22 09:36:00,33.2,22.0,30.38,West,270,4.1,6.9,63,0.00,SCT,,0.00,WeatherDisplay:10.37,2013-02-22 14:36:00,
2013-02-22 09:41:00,33.7,22.1,30.38,SE,135,3.0,3.0,62,0.00,SCT,,0.00,WeatherDisplay:10.37,2013-02-22 14:41:00,
2013-02-22 09:46:00,34.2,22.5,30.38,NW,315,2.0,2.3,62,0.00,SCT,,0.00,WeatherDisplay:10.37,2013-02-22 14:46:00,
2013-02-22 09:51:00,34.7,22.2,30.38,NW,315,3.3,5.8,60,0.00,SCT,,0.00,WeatherDisplay:10.37,2013-02-22 14:51:00,
2013-02-22 09:56:00,34.7,22.6,30.37,SE,135,1.5,2.7,61,0.00,SCT,,0.00,WeatherDisplay:10.37,2013-02-22 14:56:00,
2013-02-22 10:01:00,35.1,22.2,30.38,North,360,7.2,9.2,59,0.00,SCT,,0.00,WeatherDisplay:10.37,2013-02-22 15:01:00,
2013-02-22 10:06:00,35.5,22.6,30.38,NNW,337,3.7,9.2,59,0.00,SCT,,0.00,WeatherDisplay:10.37,2013-02-22 15:06:00,
2013-02-22 10:11:00,35.5,22.6,30.38,SE,135,4.2,5.8,59,0.00,OVC,,0.00,WeatherDisplay:10.37,2013-02-22 15:11:00,
2013-02-22 10:16:00,35.6,22.7,30.38,NE,45,1.6,5.8,59,0.00,OVC,,0.00,WeatherDisplay:10.37,2013-02-22 15:16:00,
2013-02-22 10:21:00,36.0,22.6,30.38,SE,135,7.2,10.4,58,0.00,OVC,,0.00,WeatherDisplay:10.37,2013-02-22 15:21:00,
2013-02-22 10:26:00,36.8,23.0,30.38,North,360,2.9,5.8,57,0.00,OVC,,0.00,WeatherDisplay:10.37,2013-02-22 15:26:00,
2013-02-22 10:31:00,36.8,23.0,30.39,NNE,22,3.8,8.1,57,0.00,OVC,,0.00,WeatherDisplay:10.37,2013-02-22 15:31:00,
2013-02-22 10:36:00,37.0,23.6,30.38,SSE,157,1.8,2.7,58,0.00,OVC,,0.00,WeatherDisplay:10.37,2013-02-22 15:36:00,
2013-02-22 10:41:00,37.5,23.6,30.38,SE,135,2.2,4.1,57,0.00,OVC,,0.00,WeatherDisplay:10.37,2013-02-22 15:41:00,
2013-02-22 10:46:00,37.4,23.1,30.39,SE,135,2.5,2.7,56,0.00,OVC,,0.00,WeatherDisplay:10.37,2013-02-22 15:46:00,
2013-02-22 10:51:00,36.9,23.1,30.38,NNW,337,1.9,2.3,57,0.00,OVC,,0.00,WeatherDisplay:10.37,2013-02-22 15:51:00,
2013-02-22 10:56:00,36.8,23.0,30.38,North,360,2.3,4.6,57,0.00,OVC,,0.00,WeatherDisplay:10.37,2013-02-22 15:56:00,
2013-02-22 11:01:00,37.6,23.3,30.38,NNE,22,3.1,9.5,56,0.00,BKN,,0.00,WeatherDisplay:10.37,2013-02-22 16:01:00,
2013-02-22 11:06:00,38.4,23.6,30.38,NNW,337,2.9,4.6,55,0.00,BKN,,0.00,WeatherDisplay:10.37,2013-02-22 16:06:00,
2013-02-22 11:11:00,37.8,23.1,30.38,SE,135,4.0,4.6,55,0.00,BKN,,0.00,WeatherDisplay:10.37,2013-02-22 16:11:00,
2013-02-22 11:16:00,37.1,23.3,30.37,WSW,247,3.1,6.9,57,0.00,BKN,,0.00,WeatherDisplay:10.37,2013-02-22 16:16:00,
2013-02-22 11:21:00,37.2,23.4,30.37,SE,135,0.7,2.3,57,0.00,BKN,,0.00,WeatherDisplay:10.37,2013-02-22 16:21:00,
2013-02-22 11:26:00,37.2,23.8,30.37,SE,135,3.3,5.8,58,0.00,BKN,,0.00,WeatherDisplay:10.37,2013-02-22 16:26:00,
2013-02-22 11:31:00,37.9,23.6,30.37,North,360,4.0,6.9,56,0.00,BKN,,0.00,WeatherDisplay:10.37,2013-02-22 16:31:00,
2013-02-22 11:36:00,38.1,22.9,30.37,West,270,2.7,2.7,54,0.00,BKN,,0.00,WeatherDisplay:10.37,2013-02-22 16:36:00,
2013-02-22 11:41:00,38.3,23.5,30.37,SSE,157,3.1,5.4,55,0.00,BKN,,0.00,WeatherDisplay:10.37,2013-02-22 16:41:00,
2013-02-22 11:46:00,38.6,23.8,30.37,South,180,2.6,4.6,55,0.00,BKN,,0.00,WeatherDisplay:10.37,2013-02-22 16:46:00,
2013-02-22 11:51:00,38.2,23.0,30.37,North,360,2.9,2.9,54,0.00,BKN,,0.00,WeatherDisplay:10.37,2013-02-22 16:51:00,
2013-02-22 11:56:00,38.2,23.0,30.37,North,360,4.1,6.9,54,0.00,BKN,,0.00,WeatherDisplay:10.37,2013-02-22 16:56:00,
2013-02-22 12:01:00,38.2,23.0,30.37,NE,45,1.8,4.6,54,0.00,FEW,,0.00,WeatherDisplay:10.37,2013-02-22 17:01:00,
2013-02-22 12:06:00,37.7,22.5,30.37,SE,135,4.1,5.8,54,0.00,FEW,,0.00,WeatherDisplay:10.37,2013-02-22 17:06:00,
2013-02-22 12:11:00,38.4,23.2,30.37,NE,45,2.8,2.8,54,0.00,FEW,,0.00,WeatherDisplay:10.37,2013-02-22 17:11:00,
2013-02-22 12:16:00,38.2,22.6,30.37,SE,135,5.2,9.2,53,0.00,FEW,,0.00,WeatherDisplay:10.37,2013-02-22 17:16:00,
2013-02-22 12:21:00,38.7,23.5,30.37,SE,135,3.3,3.3,54,0.00,FEW,,0.00,WeatherDisplay:10.37,2013-02-22 17:21:00,
2013-02-22 12:26:00,38.7,23.9,30.37,SE,135,3.1,4.6,55,0.00,FEW,,0.00,WeatherDisplay:10.37,2013-02-22 17:26:00,
2013-02-22 12:31:00,38.8,23.6,30.37,SE,135,3.2,4.6,54,0.00,FEW,,0.00,WeatherDisplay:10.37,2013-02-22 17:31:00,
2013-02-22 12:36:00,38.8,23.1,30.37,NE,45,3.2,5.8,53,0.00,FEW,,0.00,WeatherDisplay:10.37,2013-02-22 17:36:00,
2013-02-22 12:41:00,39.2,23.9,30.37,South,180,2.5,2.7,54,0.00,FEW,,0.00,WeatherDisplay:10.37,2013-02-22 17:41:00,
2013-02-22 12:46:00,39.8,24.0,30.37,South,180,0.9,2.3,53,0.00,FEW,,0.00,WeatherDisplay:10.37,2013-02-22 17:46:00,
2013-02-22 12:51:00,39.6,24.3,30.38,SE,135,0.6,2.3,54,0.00,FEW,,0.00,WeatherDisplay:10.37,2013-02-22 17:51:00,
2013-02-22 12:56:00,40.7,24.0,30.37,North,360,3.1,4.6,51,0.00,FEW,,0.00,WeatherDisplay:10.37,2013-02-22 17:56:00,
2013-02-22 13:01:00,40.2,24.4,30.37,South,180,2.1,4.6,53,0.00,CLR,,0.00,WeatherDisplay:10.37,2013-02-22 18:01:00,
2013-02-22 13:06:00,40.5,23.3,30.38,South,180,1.6,2.3,50,0.00,CLR,,0.00,WeatherDisplay:10.37,2013-02-22 18:06:00,
2013-02-22 13:11:00,40.8,24.1,30.37,SE,135,2.8,4.6,51,0.00,CLR,,0.00,WeatherDisplay:10.37,2013-02-22 18:11:00,
2013-02-22 13:16:00,40.4,23.2,30.38,NE,45,3.3,5.8,50,0.00,CLR,,0.00,WeatherDisplay:10.37,2013-02-22 18:16:00,
2013-02-22 13:21:00,40.9,23.2,30.37,NE,45,2.8,5.8,49,0.00,CLR,,0.00,WeatherDisplay:10.37,2013-02-22 18:21:00,
2013-02-22 13:26:00,41.1,23.4,30.38,SW,225,1.3,2.3,49,0.00,CLR,,0.00,WeatherDisplay:10.37,2013-02-22 18:26:00,
2013-02-22 13:31:00,41.2,23.9,30.38,West,270,2.4,2.7,50,0.00,CLR,,0.00,WeatherDisplay:10.37,2013-02-22 18:31:00,
2013-02-22 13:36:00,40.6,23.9,30.38,SSE,157,0.9,2.7,51,0.00,CLR,,0.00,WeatherDisplay:10.37,2013-02-22 18:36:00,
2013-02-22 13:41:00,39.6,23.4,30.38,SSE,157,1.6,2.7,52,0.00,CLR,,0.00,WeatherDisplay:10.37,2013-02-22 18:41:00,
2013-02-22 13:46:00,39.8,24.5,30.37,West,270,0.6,2.7,54,0.00,CLR,,0.00,WeatherDisplay:10.37,2013-02-22 18:46:00,
2013-02-22 13:51:00,40.1,21.5,30.37,North,360,3.8,5.8,47,0.00,CLR,,0.00,WeatherDisplay:10.37,2013-02-22 18:51:00,
2013-02-22 13:56:00,39.9,22.3,30.37,NW,315,2.0,2.7,49,0.00,CLR,,0.00,WeatherDisplay:10.37,2013-02-22 18:56:00,
2013-02-22 14:01:00,39.9,23.2,30.37,NE,45,0.5,1.3,51,0.00,CLR,,0.00,WeatherDisplay:10.37,2013-02-22 19:01:00,
2013-02-22 14:06:00,40.0,21.9,30.36,WNW,292,3.2,5.8,48,0.00,CLR,,0.00,WeatherDisplay:10.37,2013-02-22 19:06:00,
2013-02-22 14:11:00,40.3,22.6,30.36,North,360,1.1,2.3,49,0.00,CLR,,0.00,WeatherDisplay:10.37,2013-02-22 19:11:00,
2013-02-22 14:16:00,40.5,23.3,30.36,SSE,157,1.8,2.7,50,0.00,CLR,,0.00,WeatherDisplay:10.37,2013-02-22 19:16:00,
2013-02-22 14:21:00,39.6,23.9,30.37,SE,135,2.6,2.7,53,0.00,CLR,,0.00,WeatherDisplay:10.37,2013-02-22 19:21:00,
2013-02-22 14:26:00,39.8,23.1,30.37,SE,135,1.2,2.3,51,0.00,CLR,,0.00,WeatherDisplay:10.37,2013-02-22 19:26:00,
2013-02-22 14:31:00,40.8,24.1,30.36,South,180,1.9,2.7,51,0.00,CLR,,0.00,WeatherDisplay:10.37,2013-02-22 19:31:00,
2013-02-22 14:36:00,40.7,23.5,30.36,South,180,2.1,4.6,50,0.00,CLR,,0.00,WeatherDisplay:10.37,2013-02-22 19:36:00,
2013-02-22 14:41:00,40.9,25.1,30.36,South,180,2.3,2.3,53,0.00,CLR,,0.00,WeatherDisplay:10.37,2013-02-22 19:41:00,
2013-02-22 14:46:00,40.8,24.1,30.36,NE,45,2.6,2.7,51,0.00,CLR,,0.00,WeatherDisplay:10.37,2013-02-22 19:46:00,
2013-02-22 14:51:00,40.1,23.4,30.36,South,180,2.2,2.7,51,0.00,CLR,,0.00,WeatherDisplay:10.37,2013-02-22 19:51:00,
2013-02-22 14:56:00,39.3,24.0,30.36,SE,135,3.3,4.6,54,0.00,CLR,,0.00,WeatherDisplay:10.37,2013-02-22 19:56:00,
2013-02-22 15:01:00,38.8,24.4,30.36,SE,135,2.4,2.4,56,0.00,CLR,,0.00,WeatherDisplay:10.37,2013-02-22 20:01:00,
2013-02-22 15:06:00,38.3,24.4,30.36,SE,135,2.5,2.5,57,0.00,CLR,,0.00,WeatherDisplay:10.37,2013-02-22 20:06:00,
2013-02-22 15:11:00,38.0,23.7,30.37,SSE,157,2.2,2.7,56,0.00,CLR,,0.00,WeatherDisplay:10.37,2013-02-22 20:11:00,
2013-02-22 15:16:00,38.1,24.6,30.37,SSE,157,2.0,5.8,58,0.00,CLR,,0.00,WeatherDisplay:10.37,2013-02-22 20:16:00,
2013-02-22 15:21:00,38.3,24.0,30.37,SE,135,1.5,2.3,56,0.00,CLR,,0.00,WeatherDisplay:10.37,2013-02-22 20:21:00,
2013-02-22 15:26:00,38.5,24.6,30.37,SSE,157,2.0,2.7,57,0.00,CLR,,0.00,WeatherDisplay:10.37,2013-02-22 20:26:00,
2013-02-22 15:31:00,38.1,24.2,30.37,SE,135,1.2,2.3,57,0.00,CLR,,0.00,WeatherDisplay:10.37,2013-02-22 20:31:00,
2013-02-22 15:36:00,37.9,24.0,30.37,SE,135,1.5,2.3,57,0.00,CLR,,0.00,WeatherDisplay:10.37,2013-02-22 20:36:00,
2013-02-22 15:41:00,37.8,24.7,30.37,SE,135,1.8,2.3,59,0.00,CLR,,0.00,WeatherDisplay:10.37,2013-02-22 20:41:00,
2013-02-22 15:46:00,37.9,24.0,30.37,SE,135,2.1,2.3,57,0.00,CLR,,0.00,WeatherDisplay:10.37,2013-02-22 20:46:00,
2013-02-22 15:51:00,38.1,24.2,30.37,SSE,157,1.5,2.7,57,0.00,CLR,,0.00,WeatherDisplay:10.37,2013-02-22 20:51:00,
2013-02-22 15:56:00,37.7,24.2,30.37,SE,135,1.2,2.3,58,0.00,CLR,,0.00,WeatherDisplay:10.37,2013-02-22 20:56:00,
2013-02-22 16:01:00,37.3,24.3,30.37,SE,135,2.9,5.8,59,0.00,CLR,,0.00,WeatherDisplay:10.37,2013-02-22 21:01:00,
2013-02-22 16:06:00,36.7,24.5,30.36,SE,135,2.9,2.9,61,0.00,CLR,,0.00,WeatherDisplay:10.37,2013-02-22 21:06:00,
2013-02-22 16:11:00,36.5,24.3,30.36,SE,135,2.5,2.7,61,0.00,CLR,,0.00,WeatherDisplay:10.37,2013-02-22 21:11:00,
2013-02-22 16:16:00,36.3,24.1,30.37,SE,135,2.3,2.7,61,0.00,CLR,,0.00,WeatherDisplay:10.37,2013-02-22 21:16:00,
2013-02-22 16:21:00,36.0,24.6,30.37,South,180,0.9,2.3,63,0.00,CLR,,0.00,WeatherDisplay:10.37,2013-02-22 21:21:00,
2013-02-22 16:26:00,35.7,24.3,30.36,SE,135,3.3,3.3,63,0.00,CLR,,0.00,WeatherDisplay:10.37,2013-02-22 21:26:00,
2013-02-22 16:31:00,35.7,24.7,30.35,SE,135,3.0,4.1,64,0.00,CLR,,0.00,WeatherDisplay:10.37,2013-02-22 21:31:00,
2013-02-22 16:36:00,35.9,24.1,30.35,SE,135,3.8,4.6,62,0.00,CLR,,0.00,WeatherDisplay:10.37,2013-02-22 21:36:00,
2013-02-22 16:41:00,35.8,24.0,30.35,SE,135,3.1,5.8,62,0.00,CLR,,0.00,WeatherDisplay:10.37,2013-02-22 21:41:00,
2013-02-22 16:46:00,35.7,23.9,30.35,SE,135,2.9,4.6,62,0.00,CLR,,0.00,WeatherDisplay:10.37,2013-02-22 21:46:00,
2013-02-22 16:51:00,35.7,23.9,30.35,SE,135,2.5,2.7,62,0.00,CLR,,0.00,WeatherDisplay:10.37,2013-02-22 21:51:00,
2013-02-22 16:56:00,35.6,24.6,30.35,SSE,157,2.5,2.5,64,0.00,CLR,,0.00,WeatherDisplay:10.37,2013-02-22 21:56:00,
2013-02-22 17:01:00,35.3,24.7,30.35,SE,135,3.0,3.0,65,0.00,CLR,,0.00,WeatherDisplay:10.37,2013-02-22 22:01:00,
2013-02-22 17:06:00,34.9,24.3,30.35,SSE,157,2.6,2.6,65,0.00,CLR,,0.00,WeatherDisplay:10.37,2013-02-22 22:06:00,
2013-02-22 17:11:00,34.7,24.5,30.35,SSE,157,2.8,2.8,66,0.00,CLR,,0.00,WeatherDisplay:10.37,2013-02-22 22:11:00,
2013-02-22 17:16:00,34.4,24.6,30.35,SE,135,2.7,2.7,67,0.00,CLR,,0.00,WeatherDisplay:10.37,2013-02-22 22:16:00,
2013-02-22 17:21:00,34.3,24.5,30.35,SE,135,2.3,2.7,67,0.00,CLR,,0.00,WeatherDisplay:10.37,2013-02-22 22:21:00,
2013-02-22 17:26:00,34.1,24.6,30.35,SE,135,1.4,2.7,68,0.00,CLR,,0.00,WeatherDisplay:10.37,2013-02-22 22:26:00,
2013-02-22 17:31:00,33.9,24.4,30.35,SE,135,0.5,2.3,68,0.00,CLR,,0.00,WeatherDisplay:10.37,2013-02-22 22:31:00,
2013-02-22 17:36:00,33.6,24.2,30.35,SSE,157,0.6,1.3,68,0.00,CLR,,0.00,WeatherDisplay:10.37,2013-02-22 22:36:00,
2013-02-22 17:41:00,33.5,24.1,30.36,SSE,157,0.1,0.0,68,0.00,CLR,,0.00,WeatherDisplay:10.37,2013-02-22 22:41:00,
2013-02-22 17:46:00,33.1,23.7,30.36,SSE,157,0.0,0.0,68,0.00,CLR,,0.00,WeatherDisplay:10.37,2013-02-22 22:46:00,
2013-02-22 17:51:00,32.7,24.0,30.37,SSE,157,1.0,1.3,70,0.00,CLR,,0.00,WeatherDisplay:10.37,2013-02-22 22:51:00,
2013-02-22 17:56:00,32.3,23.6,30.37,SSE,157,0.0,0.0,70,0.00,CLR,,0.00,WeatherDisplay:10.37,2013-02-22 22:56:00,
2013-02-22 18:01:00,31.9,23.9,30.36,SSE,157,0.0,0.0,72,0.00,CLR,,0.00,WeatherDisplay:10.37,2013-02-22 23:01:00,
2013-02-22 18:06:00,31.6,23.9,30.37,SE,135,1.5,2.7,73,0.00,CLR,,0.00,WeatherDisplay:10.37,2013-02-22 23:06:00,
2013-02-22 18:11:00,31.5,24.2,30.36,SE,135,0.0,0.0,74,0.00,CLR,,0.00,WeatherDisplay:10.37,2013-02-22 23:11:00,
2013-02-22 18:16:00,31.3,24.0,30.35,SE,135,0.0,0.0,74,0.00,CLR,,0.00,WeatherDisplay:10.37,2013-02-22 23:16:00,
2013-02-22 18:21:00,31.0,24.0,30.35,SE,135,0.6,1.2,75,0.00,CLR,,0.00,WeatherDisplay:10.37,2013-02-22 23:21:00,
2013-02-22 18:26:00,30.8,23.8,30.36,SE,135,0.0,0.0,75,0.00,CLR,,0.00,WeatherDisplay:10.37,2013-02-22 23:26:00,
2013-02-22 18:31:00,30.5,23.5,30.36,SE,135,0.0,0.0,75,0.00,CLR,,0.00,WeatherDisplay:10.37,2013-02-22 23:31:00,
2013-02-22 18:36:00,30.3,23.3,30.37,SE,135,0.0,0.0,75,0.00,CLR,,0.00,WeatherDisplay:10.37,2013-02-22 23:36:00,
2013-02-22 18:41:00,30.1,23.4,30.37,SE,135,0.0,0.0,76,0.00,CLR,,0.00,WeatherDisplay:10.37,2013-02-22 23:41:00,
2013-02-22 18:46:00,29.8,23.5,30.36,SE,135,0.0,0.0,77,0.00,CLR,,0.00,WeatherDisplay:10.37,2013-02-22 23:46:00,
2013-02-22 18:51:00,29.5,23.2,30.36,SE,135,0.0,0.0,77,0.00,CLR,,0.00,WeatherDisplay:10.37,2013-02-22 23:51:00,
2013-02-22 18:56:00,29.4,24.0,30.36,SE,135,0.0,0.0,80,0.00,CLR,,0.00,WeatherDisplay:10.37,2013-02-22 23:56:00,
2013-02-22 19:01:00,29.3,23.6,30.36,SE,135,0.0,0.0,79,0.00,CLR,,0.00,WeatherDisplay:10.37,2013-02-23 00:01:00,
2013-02-22 19:06:00,29.1,23.1,30.36,SE,135,0.0,0.0,78,0.00,CLR,,0.00,WeatherDisplay:10.37,2013-02-23 00:06:00,
2013-02-22 19:11:00,28.9,23.5,30.37,SE,135,0.0,0.0,80,0.00,CLR,,0.00,WeatherDisplay:10.37,2013-02-23 00:11:00,
2013-02-22 19:16:00,29.1,23.7,30.37,SE,135,0.0,0.0,80,0.00,CLR,,0.00,WeatherDisplay:10.37,2013-02-23 00:16:00,
2013-02-22 19:21:00,29.1,23.4,30.37,SE,135,0.0,0.0,79,0.00,CLR,,0.00,WeatherDisplay:10.37,2013-02-23 00:21:00,
2013-02-22 19:26:00,29.0,23.9,30.37,SE,135,0.0,0.0,81,0.00,CLR,,0.00,WeatherDisplay:10.37,2013-02-23 00:26:00,
2013-02-22 19:31:00,28.9,24.1,30.36,SE,135,0.0,0.0,82,0.00,CLR,,0.00,WeatherDisplay:10.37,2013-02-23 00:31:00,
2013-02-22 19:36:00,28.9,24.7,30.35,SE,135,0.0,0.0,84,0.00,CLR,,0.00,WeatherDisplay:10.37,2013-02-23 00:36:00,
2013-02-22 19:41:00,28.8,24.6,30.36,SE,135,0.0,0.0,84,0.00,CLR,,0.00,WeatherDisplay:10.37,2013-02-23 00:41:00,
2013-02-22 19:46:00,28.7,24.2,30.36,SE,135,0.0,0.0,83,0.00,CLR,,0.00,WeatherDisplay:10.37,2013-02-23 00:46:00,
2013-02-22 19:51:00,28.7,24.5,30.35,SE,135,0.0,0.0,84,0.00,CLR,,0.00,WeatherDisplay:10.37,2013-02-23 00:51:00,
2013-02-22 19:56:00,28.7,24.5,30.35,SE,135,0.0,0.0,84,0.00,CLR,,0.00,WeatherDisplay:10.37,2013-02-23 00:56:00,
2013-02-22 20:01:00,28.9,24.7,30.36,SE,135,0.0,0.0,84,0.00,CLR,,0.00,WeatherDisplay:10.37,2013-02-23 01:01:00,
2013-02-22 20:06:00,29.2,24.7,30.37,West,270,0.6,2.7,83,0.00,CLR,,0.00,WeatherDisplay:10.37,2013-02-23 01:06:00,
2013-02-22 20:11:00,29.5,24.4,30.37,WNW,292,0.8,2.3,81,0.00,CLR,,0.00,WeatherDisplay:10.37,2013-02-23 01:11:00,
2013-02-22 20:16:00,29.6,24.5,30.37,WNW,292,0.0,0.0,81,0.00,CLR,,0.00,WeatherDisplay:10.37,2013-02-23 01:16:00,
2013-02-22 20:21:00,29.6,24.8,30.37,WNW,292,0.0,0.0,82,0.00,CLR,,0.00,WeatherDisplay:10.37,2013-02-23 01:21:00,
2013-02-22 20:26:00,29.5,24.7,30.37,WNW,292,0.0,0.0,82,0.00,CLR,,0.00,WeatherDisplay:10.37,2013-02-23 01:26:00,
2013-02-22 20:31:00,29.5,24.7,30.36,WNW,292,0.0,0.0,82,0.00,CLR,,0.00,WeatherDisplay:10.37,2013-02-23 01:31:00,
2013-02-22 20:36:00,29.5,25.0,30.36,WNW,292,0.0,0.0,83,0.00,CLR,,0.00,WeatherDisplay:10.37,2013-02-23 01:36:00,
2013-02-22 20:41:00,29.5,25.8,30.35,WNW,292,0.0,0.0,86,0.00,CLR,,0.00,WeatherDisplay:10.37,2013-02-23 01:41:00,
2013-02-22 20:46:00,29.4,25.4,30.35,WNW,292,0.0,0.0,85,0.00,CLR,,0.00,WeatherDisplay:10.37,2013-02-23 01:46:00,
2013-02-22 20:51:00,29.3,25.4,30.35,WNW,292,0.0,0.0,85,0.00,CLR,,0.00,WeatherDisplay:10.37,2013-02-23 01:51:00,
2013-02-22 20:56:00,29.1,25.2,30.35,WNW,292,0.0,0.0,85,0.00,CLR,,0.00,WeatherDisplay:10.37,2013-02-23 01:56:00,
2013-02-22 21:01:00,28.9,24.7,30.35,WNW,292,0.0,0.0,84,0.00,SCT,,0.00,WeatherDisplay:10.37,2013-02-23 02:01:00,
2013-02-22 21:06:00,28.9,25.0,30.35,WNW,292,0.0,0.0,85,0.00,SCT,,0.00,WeatherDisplay:10.37,2013-02-23 02:06:00,
2013-02-22 21:11:00,28.9,25.0,30.35,WNW,292,0.0,0.0,85,0.00,SCT,,0.00,WeatherDisplay:10.37,2013-02-23 02:11:00,
2013-02-22 21:16:00,29.0,24.8,30.35,WNW,292,0.0,0.0,84,0.00,SCT,,0.00,WeatherDisplay:10.37,2013-02-23 02:16:00,
2013-02-22 21:21:00,29.1,24.9,30.35,WNW,292,0.0,0.0,84,0.00,SCT,,0.00,WeatherDisplay:10.37,2013-02-23 02:21:00,
2013-02-22 21:26:00,29.0,24.8,30.35,WNW,292,0.0,0.0,84,0.00,SCT,,0.00,WeatherDisplay:10.37,2013-02-23 02:26:00,
2013-02-22 21:31:00,29.1,24.9,30.35,WNW,292,0.0,0.0,84,0.00,SCT,,0.00,WeatherDisplay:10.37,2013-02-23 02:31:00,
2013-02-22 21:36:00,29.0,24.8,30.35,WNW,292,0.0,0.0,84,0.00,SCT,,0.00,WeatherDisplay:10.37,2013-02-23 02:36:00,
2013-02-22 21:41:00,29.2,24.7,30.35,WNW,292,0.0,0.0,83,0.00,SCT,,0.00,WeatherDisplay:10.37,2013-02-23 02:41:00,
2013-02-22 21:46:00,29.4,25.4,30.35,WNW,292,0.0,0.0,85,0.00,SCT,,0.00,WeatherDisplay:10.37,2013-02-23 02:46:00,
2013-02-22 21:51:00,29.4,25.4,30.35,WNW,292,0.0,0.0,85,0.00,SCT,,0.00,WeatherDisplay:10.37,2013-02-23 02:51:00,
2013-02-22 21:56:00,29.4,25.4,30.35,WNW,292,0.0,0.0,85,0.00,SCT,,0.00,WeatherDisplay:10.37,2013-02-23 02:56:00,
2013-02-22 22:01:00,29.4,25.7,30.35,WNW,292,0.0,0.0,86,0.00,FEW,,0.00,WeatherDisplay:10.37,2013-02-23 03:01:00,
2013-02-22 22:06:00,29.5,25.3,30.36,WNW,292,0.0,0.0,84,0.00,FEW,,0.00,WeatherDisplay:10.37,2013-02-23 03:06:00,
2013-02-22 22:11:00,29.4,25.2,30.35,WNW,292,0.0,0.0,84,0.00,FEW,,0.00,WeatherDisplay:10.37,2013-02-23 03:11:00,
2013-02-22 22:16:00,29.3,25.1,30.36,WNW,292,0.0,0.0,84,0.00,FEW,,0.00,WeatherDisplay:10.37,2013-02-23 03:16:00,
2013-02-22 22:21:00,29.2,25.0,30.35,WNW,292,0.0,0.0,84,0.00,FEW,,0.00,WeatherDisplay:10.37,2013-02-23 03:21:00,
2013-02-22 22:26:00,29.0,24.8,30.36,WNW,292,0.0,0.0,84,0.00,FEW,,0.00,WeatherDisplay:10.37,2013-02-23 03:26:00,
2013-02-22 22:31:00,28.9,24.7,30.36,WNW,292,0.0,0.0,84,0.00,FEW,,0.00,WeatherDisplay:10.37,2013-02-23 03:31:00,
2013-02-22 22:36:00,28.8,24.9,30.36,WNW,292,0.0,0.0,85,0.00,FEW,,0.00,WeatherDisplay:10.37,2013-02-23 03:36:00,
2013-02-22 22:41:00,28.7,24.8,30.35,WNW,292,0.0,0.0,85,0.00,FEW,,0.00,WeatherDisplay:10.37,2013-02-23 03:41:00,
2013-02-22 22:46:00,28.7,25.3,30.35,WNW,292,0.0,0.0,87,0.00,FEW,,0.00,WeatherDisplay:10.37,2013-02-23 03:46:00,
2013-02-22 22:51:00,28.7,25.6,30.35,WNW,292,0.0,0.0,88,0.00,FEW,,0.00,WeatherDisplay:10.37,2013-02-23 03:51:00,
2013-02-22 22:56:00,28.7,25.3,30.35,WNW,292,0.0,0.0,87,0.00,FEW,,0.00,WeatherDisplay:10.37,2013-02-23 03:56:00,
2013-02-22 23:01:00,28.6,25.2,30.35,WNW,292,0.0,0.0,87,0.00,FEW,,0.00,WeatherDisplay:10.37,2013-02-23 04:01:00,
2013-02-22 23:06:00,28.6,25.2,30.35,WNW,292,0.0,0.0,87,0.00,FEW,,0.00,WeatherDisplay:10.37,2013-02-23 04:06:00,
2013-02-22 23:11:00,28.5,25.1,30.35,WNW,292,0.0,0.0,87,0.00,OVC,,0.00,WeatherDisplay:10.37,2013-02-23 04:11:00,
2013-02-22 23:16:00,28.4,25.0,30.35,WNW,292,0.0,0.0,87,0.00,OVC,,0.00,WeatherDisplay:10.37,2013-02-23 04:16:00,
2013-02-22 23:21:00,28.3,25.2,30.34,WNW,292,0.0,0.0,88,0.00,OVC,,0.00,WeatherDisplay:10.37,2013-02-23 04:21:00,
2013-02-22 23:26:00,27.9,24.5,30.34,WNW,292,0.0,0.0,87,0.00,OVC,,0.00,WeatherDisplay:10.37,2013-02-23 04:26:00,
2013-02-22 23:31:00,27.5,24.1,30.34,WNW,292,0.0,0.0,87,0.00,OVC,,0.00,WeatherDisplay:10.37,2013-02-23 04:31:00,
2013-02-22 23:36:00,27.0,24.2,30.34,WNW,292,2.3,2.3,89,0.00,OVC,,0.00,WeatherDisplay:10.37,2013-02-23 04:36:00,
2013-02-22 23:41:00,26.8,24.3,30.35,WNW,292,0.0,0.0,90,0.00,OVC,,0.00,WeatherDisplay:10.37,2013-02-23 04:41:00,
2013-02-22 23:46:00,26.5,24.0,30.34,WNW,292,0.0,0.0,90,0.00,OVC,,0.00,WeatherDisplay:10.37,2013-02-23 04:46:00,
2013-02-22 23:51:00,26.1,23.8,30.35,WNW,292,0.0,0.0,91,0.00,OVC,,0.00,WeatherDisplay:10.37,2013-02-23 04:51:00,
2013-02-22 23:56:00,25.7,23.4,30.35,WNW,292,0.0,0.0,91,0.00,OVC,,0.00,WeatherDisplay:10.37,2013-02-23 04:56:00,